Torna al catalogo

STARLINK-11229

AttivoComunicazioniVLEO
NORAD 60908·PAYLOAD·🇺🇸 United States

Lanciato Aug 31, 2024 da Cape Canaveral Space Force Station

Loading…

Prossimi Passaggi (prossime 24 ore)

TLE

AggiornatoSource: CelesTrak SupGP

Epoca: Sep 15, 2026, 02:55 UTC

1 60908C 24154F   26258.12201389  .00028491  00000+0  23435-3 0  2589
2 60908  53.1573 277.5681 0001184  95.1981 314.3587 15.69729990    11

Traccia STARLINK-11229 in tempo reale con AllMySat

Download on the App Store